Location: Unspecified
(0.0000°N, 0.0000°E)
Time: 02:52:04
(UTC+00:00)

Envisat - Pass Details

Date: 10 March 2019
Orbit: 764 x 766 km, 98.1° (Epoch: 27 September)

Event Time Altitude Azimuth Distance (km) Brightness Sun altitude
Rises 19:02:38 0° 167° (SSE) 3,227 6.1 -13.1°
Reaches altitude 10° 19:04:56 10° 166° (SSE) 2,299 5.4 -13.6°
Maximum altitude 19:10:01 84° 78° (ENE) 771 2.9 -14.9°
Drops below altitude 10° 19:15:04 10° 350° (N) 2,290 5.5 -16.2°
Sets 19:17:27 0° 349° (N) 3,249 6.3 -16.7°
